San Antonio Stinson, TX

3:33 AM CDT on April 25, 2017 (GMT -0500)
Stinson Municipal

Weather History for KSSF - January, 2012

Change the Weather History Date:

Tuesday, January 17, 2012

  Actual Average Record
Temperature  
Mean Temperature 65 °F -  
Max Temperature 78 °F 62 °F 82 °F (1999)
Min Temperature 50 °F 41 °F 30 °F (2003)
Growing Degree Days 15 (Base 50)    
Moisture  
Dew Point 53 °F    
Average Humidity 76    
Maximum Humidity 100    
Minimum Humidity 30    
Precipitation  
Precipitation 0.00 in - - ()
Sea Level Pressure  
Sea Level Pressure 30.04 in    
Wind  
Wind Speed 3 mph (NNE)    
Max Wind Speed 16 mph    
Max Gust Speed 24 mph    
Visibility 7 miles    
Events Fog    
Averages and records for this station are not official NWS values.
T = Trace of Precipitation, MM = Missing Value Source: NWS Daily Summary

Daily Weather History Graph

Daily Weather History Graph

Search for Another Location

Airport or City:

Trip Planner

Search our weather history database for the weather conditions in past years. The results will help you decide how hot, cold, wet, or windy it might be!

Date:

Astronomy

Jan. 17, 2012 Rise Set
Actual Time 7:28 AM CST 5:59 PM CST
Civil Twilight 7:03 AM CST 6:24 PM CST
Nautical Twilight 6:34 AM CST 6:53 PM CST
Astronomical Twilight 6:05 AM CST 7:22 PM CST
Moon 1:53 AM CST (1/17) 12:52 PM CST (1/17)
Length of Visible Light 11h 21m
Length of Day
10h 30m
Waning Crescent, 35% of the Moon is Illuminated
Jan 17
Waning Crescent
Jan 23
New
Jan 30
First Quarter
Feb 7
Full
Feb 14
Last Quarter

Hourly Weather History & Observations

Time (CST) Temp. Dew Point Humidity Pressure Visibility Wind Dir Wind Speed Gust Speed Precip Events Conditions
12:45 AM 57.2 °F 57.2 °F 100% 29.98 in 1.5 mi Calm Calm - N/A   Scattered Clouds
12:48 AM 57.2 °F 57.2 °F 100% 29.97 in 0.8 mi Calm Calm - N/A   Mist
1:01 AM 55.4 °F 55.4 °F 100% 29.97 in 1.2 mi Calm Calm - N/A   Scattered Clouds
1:06 AM 55.4 °F 55.4 °F 100% 29.97 in 3.0 mi Calm Calm - N/A   Scattered Clouds
1:29 AM 53.6 °F 53.6 °F 100% 29.97 in 1.5 mi ESE 3.5 mph - N/A   Partly Cloudy
1:32 AM 53.6 °F 53.6 °F 100% 29.97 in 0.8 mi ESE 3.5 mph - N/A   Mist
1:53 AM 55.9 °F 55.9 °F 100% 29.95 in 0.2 mi Calm Calm - N/A Fog Fog
2:03 AM 57.2 °F 57.2 °F 100% 29.97 in 2.5 mi Calm Calm - N/A   Overcast
2:10 AM 57.2 °F 57.2 °F 100% 29.97 in 5.0 mi Calm Calm - N/A   Overcast
2:22 AM 57.2 °F 57.2 °F 100% 29.97 in 6.0 mi Calm Calm - N/A   Overcast
2:53 AM 59.0 °F 59.0 °F 100% 29.94 in 4.0 mi Calm Calm - N/A   Overcast
2:58 AM 59.0 °F 59.0 °F 100% 29.96 in 1.8 mi Calm Calm - N/A   Overcast
3:07 AM 60.8 °F 60.8 °F 100% 29.96 in 3.0 mi Calm Calm - N/A   Overcast
3:42 AM 62.6 °F 62.6 °F 100% 29.97 in 7.0 mi Calm Calm - N/A   Overcast
3:53 AM 62.1 °F 62.1 °F 100% 29.96 in 7.0 mi Calm Calm - N/A   Overcast
4:53 AM 62.1 °F 62.1 °F 100% 29.96 in 6.0 mi Calm Calm - N/A   Overcast
6:12 AM 62.6 °F 62.6 °F 100% 30.00 in 6.0 mi Calm Calm - N/A   Overcast
6:53 AM 64.0 °F 64.0 °F 100% 30.02 in 6.0 mi NNW 4.6 mph - N/A   Overcast
7:20 AM 64.4 °F 64.4 °F 100% 30.05 in 7.0 mi NNW 5.8 mph - N/A   Overcast
7:53 AM 64.9 °F 64.0 °F 97% 30.04 in 6.0 mi Calm Calm - N/A   Mostly Cloudy
8:03 AM 64.4 °F 64.4 °F 100% 30.06 in 7.0 mi Calm Calm - N/A   Scattered Clouds
8:53 AM 66.0 °F 64.9 °F 96% 30.06 in 7.0 mi Calm Calm - N/A   Clear
9:53 AM 70.0 °F 64.9 °F 84% 30.08 in 10.0 mi Calm Calm - N/A   Clear
10:15 AM 73.4 °F 64.4 °F 73% 30.10 in 10.0 mi North 5.8 mph - N/A   Partly Cloudy
10:53 AM 73.9 °F 61.0 °F 64% 30.09 in 10.0 mi NNE 12.7 mph - N/A   Clear
11:53 AM 77.0 °F 57.0 °F 50% 30.08 in 10.0 mi NNE 13.8 mph - N/A   Clear
12:53 PM 78.1 °F 48.9 °F 36% 30.05 in 10.0 mi NE 13.8 mph - N/A   Clear
1:53 PM 78.1 °F 45.0 °F 31% 30.05 in 10.0 mi North 11.5 mph - N/A   Clear
2:53 PM 78.1 °F 45.0 °F 31% 30.05 in 10.0 mi NNE 13.8 mph 20.7 mph N/A   Clear
3:53 PM 75.0 °F 44.1 °F 33% 30.05 in 10.0 mi NNE 11.5 mph - N/A   Clear
4:53 PM 73.0 °F 39.9 °F 30% 30.07 in 10.0 mi NE 13.8 mph - N/A   Clear
5:53 PM 68.0 °F 37.9 °F 33% 30.12 in 10.0 mi NNE 13.8 mph 18.4 mph N/A   Clear
6:53 PM 64.0 °F 36.0 °F 35% 30.15 in 10.0 mi NE 12.7 mph 17.3 mph N/A   Clear
7:53 PM 60.1 °F 34.0 °F 38% 30.18 in 10.0 mi NNE 11.5 mph - N/A   Clear
8:53 PM 57.9 °F 33.1 °F 39% 30.20 in 10.0 mi NNE 13.8 mph 21.9 mph N/A   Clear
9:53 PM 55.0 °F 30.9 °F 40% 30.22 in 10.0 mi NNE 16.1 mph 24.2 mph N/A   Clear
10:53 PM 52.0 °F 30.0 °F 43% 30.23 in 10.0 mi NNE 12.7 mph 21.9 mph N/A   Clear
11:53 PM 50.0 °F 28.9 °F 44% 30.24 in 10.0 mi NNE 11.5 mph 21.9 mph N/A   Clear